{"data":{"norad_id":61678,"intl_designator":"2024-193T","name":"STARLINK-32363","alt_names":[],"object_type":"PAYLOAD","status":"ACTIVE","operator":null,"country":"US","launch_date":"2024-10-26","launch_site_code":"AFETR","launch_vehicle":null,"mission":null,"orbit_class":"UNKNOWN","rcs_meters":null,"size_class":null,"mass_kg":null,"dimensions":null,"purposes":["comms"],"wikipedia_slug":null,"has_3d_model":false,"image_url":null,"decayed_at":null,"tle_current":{"epoch":"2026-05-25T02:36:23.146272Z","epoch_age_seconds":65783,"freshness":"FRESH","line1":"1 61678U 24193T   26145.10860123 -.00000058  00000+0  94168-5 0  9992","line2":"2 61678  53.1611  94.8481 0001419  97.9278 262.1886 15.34386551 88244","mean_motion":15.34386551,"eccentricity":0.0001419,"inclination_deg":53.1611,"raan_deg":94.8481,"arg_perigee_deg":97.9278,"mean_anomaly_deg":262.1886,"bstar":9.4168e-6,"rev_number":8824,"period_min":93.848580663166,"perigee_km":461.77249285899,"apogee_km":463.71393466366,"semimajor_km":6840.8802137613,"source":"CELESTRAK","updated_at":"2026-05-25T13:38:19.437333Z"}}}